Wind_Speed
19 18 16 17 18 17 13 12 12 13 13 12 12 13 14 15 16 17 17 17 16 15 14 13 11 11 10 9 8 8 8 8 8 8 8 8 7 6 7 7 5 4 5 4 5 5 4 4 4 4 4 5 5 5 5 6 7 7 7 6 7 7 6 6 8 7 4 3 4 4 6 5 4 7 7 7 9 9 9 10 11 11 12 14 16
17 16 15 16 17 17 14 13 13 13 13 13 13 14 15 16 17 17 17 17 16 14 13 13 12 11 10 9 8 8 8 8 8 8 7 7 7 6 6 6 4 3 3 3 3 3 4 3 1 3 3 3 4 3 3 4 4 4 6 6 6 7 6 6 6 6 5 5 4 5 8 7 4 7 10 8 8 9 10 12 14 14 14 14 16
14 13 13 14 14 15 13 12 13 14 14 13 14 15 17 17 18 18 17 16 15 14 14 13 12 11 10 9 8 7 7 7 6 6 6 5 5 4 3 3 2 2 2 2 2 2 3 3 2 1 2 2 3 3 3 4 4 4 5 6 7 6 6 5 4 4 4 3 3 2 5 8 6 7 11 11 11 11 11 14 17 17 18 17 17
11 11 12 12 12 11 11 10 12 14 14 13 14 16 17 18 18 18 18 16 16 16 15 14 13 11 10 9 8 8 8 6 5 5 6 5 4 4 3 2 2 2 3 3 4 4 3 4 4 3 2 2 2 3 3 4 5 4 5 6 6 4 3 3 3 2 2 1 1 1 4 7 6 7 9 10 12 13 13 17 20 21 22 20 19
11 11 11 12 12 11 10 10 11 13 14 14 15 16 16 17 19 19 18 18 17 17 16 14 13 12 11 10 8 8 8 7 6 6 7 7 6 5 5 5 6 7 7 8 8 7 6 6 6 7 6 5 4 4 4 5 5 5 6 5 5 4 2 1 2 2 1 2 3 5 6 6 7 10 10 9 10 10 11 15 20 23 26 25 22
10 10 10 11 11 11 11 10 10 12 13 14 16 17 16 17 19 19 19 19 19 18 16 15 14 12 11 10 9 8 8 7 6 6 7 8 9 10 10 10 10 10 10 11 12 12 11 9 10 10 9 8 8 7 6 6 6 6 7 7 6 7 6 4 3 3 2 2 3 5 7 7 8 9 11 14 15 13 13 16 17 18 25 29 26
8 9 10 10 11 11 11 10 9 11 12 14 17 19 18 17 19 21 21 21 20 18 16 14 14 13 11 10 10 9 8 8 7 7 8 10 12 12 13 13 12 11 12 12 13 14 13 12 13 13 12 12 11 11 10 9 8 8 8 9 8 8 7 5 5 5 4 4 4 5 6 8 8 7 10 16 17 13 14 21 23 21 24 28 28
6 7 8 7 8 9 9 9 10 11 13 14 17 18 18 18 18 20 21 21 20 18 15 14 14 13 12 11 11 12 12 11 11 12 12 13 13 13 13 12 11 11 12 11 12 13 13 13 13 14 13 12 13 14 13 12 11 11 11 11 10 9 8 7 6 6 6 6 7 6 6 7 8 7 9 12 13 14 18 25 29 27 27 28 27
6 7 7 8 8 8 9 10 11 12 13 14 15 17 18 18 18 18 19 19 18 16 14 14 14 14 13 13 14 14 13 13 15 15 14 14 13 12 11 11 10 10 10 10 11 12 13 14 14 15 15 14 14 15 15 15 16 15 14 13 11 10 9 7 7 6 7 8 8 7 8 9 9 10 12 14 17 22 25 28 29 27 27 27 23
6 7 7 8 9 8 8 9 10 11 11 12 13 14 15 16 16 15 15 17 16 14 13 14 14 13 13 13 14 14 14 14 13 11 9 8 7 6 6 5 5 6 7 7 8 9 10 12 13 14 15 15 14 14 15 17 18 18 17 17 15 13 11 10 8 7 7 8 9 9 9 9 11 14 16 19 23 26 27 28 29 26 25 24 20
6 6 6 6 7 6 6 7 8 9 10 11 12 14 15 15 14 13 12 13 12 11 10 11 11 11 12 12 12 11 10 8 5 4 3 2 2 2 1 1 2 3 4 5 5 6 7 7 9 11 12 12 13 13 14 16 17 18 19 19 18 17 15 13 12 12 10 8 10 11 10 9 12 16 18 20 24 26 28 29 28 25 23 24 22
5 5 4 4 4 4 4 5 6 7 7 8 10 12 14 15 15 15 14 12 11 11 10 10 10 10 10 9 9 7 5 4 3 3 3 3 2 2 2 3 3 3 4 5 4 4 5 5 6 8 10 10 11 11 12 13 14 16 18 19 19 19 17 15 14 14 14 12 11 12 12 12 14 17 20 23 26 27 28 26 23 23 24 26 25
6 5 5 4 3 3 3 4 4 4 5 5 6 7 9 9 11 13 12 11 12 13 11 9 8 8 7 7 6 5 4 4 4 4 4 4 4 4 4 5 4 4 5 5 5 5 6 6 5 8 11 10 9 10 10 9 10 12 15 18 19 19 18 17 16 15 15 15 13 14 16 16 17 19 23 27 28 27 27 24 22 24 26 26 27
8 8 7 6 5 4 3 3 3 3 3 3 3 3 4 5 5 6 6 6 8 8 7 8 8 7 6 5 5 5 5 5 5 5 5 5 6 5 5 5 5 5 6 7 7 7 7 7 6 7 8 7 6 8 10 9 8 10 14 17 18 18 18 17 17 15 15 15 15 16 18 19 19 22 26 28 28 27 26 24 24 26 27 28 28
8 7 7 6 6 6 6 5 5 4 4 4 4 4 4 3 3 5 6 6 8 9 9 8 7 6 6 5 6 5 4 4 5 5 5 6 6 5 4 5 6 7 8 7 6 7 7 7 6 5 4 4 5 7 8 7 7 9 12 14 15 16 16 16 16 15 15 16 17 18 20 22 24 27 28 28 27 26 25 26 27 28 28 26 25
6 5 5 6 6 7 7 7 6 6 6 5 6 6 6 6 7 9 9 9 9 9 8 7 6 6 5 4 4 3 2 2 2 2 4 5 5 5 5 5 6 7 7 6 6 6 6 5 4 4 4 4 5 6 5 4 4 5 7 9 11 13 15 15 15 15 16 18 19 21 23 25 26 26 26 25 24 24 24 25 24 21 20 19 18
5 5 5 5 5 6 7 7 8 7 7 6 6 7 7 8 8 8 8 8 7 7 7 6 5 5 4 3 2 2 2 2 2 2 2 2 3 4 4 4 5 7 7 6 6 6 5 5 5 5 5 5 4 4 3 3 4 5 6 8 10 13 14 14 15 17 18 19 21 23 24 25 26 25 24 24 24 24 24 22 17 15 15 17 17
7 6 5 5 4 5 5 6 7 7 7 6 6 7 7 7 7 6 6 6 6 6 5 5 4 4 3 3 3 4 4 4 4 4 4 3 3 3 3 4 5 6 7 7 7 6 5 5 5 5 5 4 4 3 1 3 4 6 8 9 11 14 15 16 18 20 22 23 24 24 24 25 25 24 25 24 23 24 23 20 17 16 16 16 16
6 6 6 6 5 5 5 6 6 7 8 8 8 8 8 7 6 6 5 5 5 5 4 5 5 5 5 5 4 5 5 6 6 5 5 5 4 3 4 4 3 2 3 5 6 6 5 4 4 4 4 3 3 1 2 3 5 8 10 11 12 15 17 18 19 21 23 23 24 25 25 25 25 25 26 26 25 25 22 19 18 16 15 15 16
5 4 4 5 5 6 6 7 7 7 7 9 10 10 10 9 8 7 7 7 7 8 6 6 6 6 7 6 6 6 6 6 6 5 5 5 4 3 4 4 3 2 1 2 3 5 6 5 5 5 4 4 4 4 4 6 8 10 11 11 11 14 17 19 19 20 21 22 23 23 23 24 24 23 23 23 23 20 16 14 15 14 13 16 16
8 6 6 6 6 7 7 8 10 9 9 11 13 13 13 14 13 14 13 12 11 11 10 9 7 7 8 7 6 6 5 5 5 5 4 4 4 4 4 5 5 3 2 2 2 2 4 6 6 6 7 7 8 8 9 10 10 12 13 14 15 17 18 20 20 20 21 21 21 20 19 18 18 17 16 16 16 16 14 11 11 11 12 15 16
10 10 11 10 10 10 10 12 13 12 12 13 14 14 13 13 14 14 14 13 12 12 11 9 7 7 7 5 4 4 4 4 4 4 4 4 4 5 5 7 7 4 3 4 4 4 6 9 9 9 9 10 11 11 12 12 13 15 16 16 17 18 18 19 20 19 18 17 16 16 14 13 13 13 14 14 14 17 18 15 12 12 13 14 16
10 11 12 13 13 14 14 15 16 17 16 14 13 12 12 13 13 13 13 13 12 12 11 9 8 7 5 4 3 3 3 3 3 4 4 4 4 5 7 8 8 6 4 4 5 7 10 12 10 10 11 11 12 13 14 15 16 16 16 16 16 16 17 17 17 16 16 15 15 14 12 12 12 12 13 15 16 19 21 20 18 17 16 15 15
11 11 11 11 13 14 14 14 16 17 17 15 13 13 13 14 14 14 14 13 12 12 11 9 8 8 7 6 5 3 3 4 4 5 6 6 6 6 7 8 7 6 6 5 6 8 11 12 9 10 11 12 14 15 15 15 15 14 14 14 14 15 14 13 13 14 14 13 14 13 11 12 13 14 15 18 20 20 20 19 17 16 15 14 14
15 15 13 12 12 12 12 13 15 16 17 16 15 15 15 15 15 15 14 14 13 13 12 11 10 9 8 8 7 6 5 6 6 7 8 8 8 8 8 7 7 7 7 8 9 10 11 10 8 10 12 13 15 14 13 12 12 12 13 13 13 12 12 11 12 13 11 10 12 13 12 13 15 16 17 19 18 16 14 13 13 13 12 12 12
20 20 18 16 15 14 14 14 15 15 17 18 17 17 17 17 17 17 16 16 15 15 14 13 12 11 10 9 8 8 7 8 8 8 9 9 9 8 8 8 8 9 10 10 11 11 10 10 9 10 11 12 12 11 11 12 12 12 12 11 10 11 11 12 13 13 11 11 13 13 12 13 14 14 15 14 13 11 10 11 11 11 11 11 12
22 23 22 21 19 18 17 16 17 16 17 18 19 19 20 19 19 19 18 18 18 17 17 16 14 13 13 11 10 10 8 8 9 10 11 10 9 9 9 9 10 11 12 11 11 11 11 10 9 8 8 9 11 12 12 12 11 10 9 10 12 13 13 14 13 11 9 10 10 10 10 11 11 11 10 10 9 9 10 10 11 11 11 11 12
23 24 24 24 23 20 17 18 20 19 17 17 19 21 21 21 21 21 21 20 19 19 18 17 17 16 14 13 11 11 9 9 9 9 10 10 10 10 10 10 11 14 15 14 12 12 12 10 9 9 10 10 10 10 9 9 9 9 8 9 11 11 12 13 11 7 5 6 7 8 9 9 9 9 9 9 9 9 9 10 10 11 11 11 12
24 24 23 23 22 21 19 19 20 19 17 18 20 23 24 23 22 22 22 22 21 20 18 17 16 15 14 13 13 12 10 9 11 11 11 11 11 11 11 11 12 15 16 15 13 12 12 12 12 11 10 9 7 5 5 7 8 9 10 10 8 6 7 7 6 5 5 6 7 7 8 8 9 9 9 9 9 9 9 10 10 11 11 11 12
24 23 21 20 19 19 19 18 17 17 18 18 19 23 27 29 28 26 25 25 25 24 22 20 17 16 14 12 13 14 13 12 13 14 13 13 13 13 13 13 14 15 15 13 12 11 12 12 11 9 8 6 5 5 5 6 5 6 9 10 6 6 9 6 3 5 7 7 7 8 8 8 9 9 9 10 10 10 10 10 11 11 11 12 12
24 22 19 17 17 19 21 20 18 18 18 18 18 19 22 27 30 30 29 28 27 25 24 22 20 19 18 15 15 17 16 16 16 15 14 15 15 14 14 15 16 16 14 12 11 11 11 10 9 9 8 6 6 6 5 5 4 4 6 6 4 5 7 5 3 5 6 6 7 8 8 9 9 9 10 11 12 12 10 10 10 10 11 11 12
23 22 19 17 18 21 23 23 21 20 19 19 19 19 19 21 24 27 29 30 27 25 24 23 22 21 21 20 20 20 19 17 18 17 16 17 16 15 15 15 16 15 14 12 10 10 10 10 9 8 8 7 6 6 5 5 5 4 3 3 2 4 5 4 5 6 5 6 7 8 8 9 10 9 10 11 12 12 11 10 11 11 11 11 12
24 24 23 22 21 21 21 20 19 18 19 19 19 20 21 20 20 22 25 26 26 24 23 22 22 23 23 22 22 22 21 19 19 19 19 19 18 16 16 15 15 15 15 12 11 10 10 10 9 8 7 6 6 5 5 4 4 3 1 1 1 3 4 4 5 6 5 6 8 8 8 9 9 9 10 11 11 11 11 11 11 10 11 12 12
23 24 26 25 22 18 17 17 16 15 17 18 18 19 20 20 20 20 20 22 23 24 24 23 22 23 23 23 23 23 22 21 21 20 20 20 19 18 17 16 16 15 15 13 12 11 10 9 8 7 7 6 6 5 4 3 2 1 0 2 3 3 4 4 4 5 7 7 7 7 9 9 9 9 10 10 10 11 10 11 11 10 11 13 14
20 23 25 27 25 22 21 20 17 15 16 17 18 19 19 20 21 21 21 19 19 20 22 24 25 24 24 24 24 24 23 23 22 22 22 22 21 19 19 19 19 18 17 16 14 12 10 9 8 7 7 7 6 5 3 3 2 1 1 3 4 5 6 6 5 6 7 7 7 8 9 9 8 9 10 10 11 11 11 11 12 12 12 14 16
17 18 19 22 25 26 23 19 17 16 16 16 17 17 16 17 17 18 20 20 19 17 17 19 23 28 28 26 24 24 24 24 23 23 23 22 21 20 22 23 22 20 19 17 14 11 10 9 8 7 7 6 5 4 3 3 2 2 1 3 4 5 6 6 6 7 6 6 7 8 8 8 8 9 10 10 11 11 11 12 13 13 13 15 17
15 15 16 17 21 22 20 16 15 15 15 15 15 14 14 14 14 15 16 17 19 19 17 15 20 26 28 26 25 25 25 24 22 21 21 19 18 20 22 22 19 18 18 16 13 11 10 10 8 6 5 4 4 4 4 3 3 2 2 4 5 5 6 8 10 10 7 6 7 8 8 8 9 10 10 11 11 11 11 12 13 13 13 15 17
13 13 14 15 16 17 17 16 16 15 14 13 14 14 13 13 13 14 14 15 17 19 17 16 16 18 21 24 26 24 22 21 20 19 19 18 18 20 21 18 15 16 16 14 12 11 10 9 7 5 5 5 5 5 4 4 3 2 1 3 4 6 7 8 10 10 8 7 8 9 8 9 10 10 11 11 12 12 12 12 12 12 13 14 16
11 12 14 16 17 16 15 13 12 11 10 10 12 15 16 17 17 17 15 14 17 18 17 14 13 11 13 19 22 20 18 19 19 19 20 20 21 21 19 17 16 15 14 13 12 11 9 8 6 5 5 6 6 5 4 4 3 2 1 3 4 5 6 6 7 9 8 8 8 8 9 10 11 11 11 12 13 14 14 12 11 11 13 14 16
9 9 11 14 16 15 13 11 9 8 7 8 10 12 13 15 17 16 12 10 12 14 13 11 10 10 10 13 15 15 14 15 17 18 21 23 24 22 19 18 17 16 15 14 13 10 8 6 5 4 5 6 6 5 5 4 3 1 1 3 3 5 6 7 8 9 11 10 9 10 12 13 14 14 14 14 16 17 15 13 11 11 12 14 16
8 6 7 11 14 12 11 10 8 7 7 7 7 8 8 9 10 10 9 9 9 10 9 9 10 10 10 10 11 12 14 15 18 21 24 26 26 23 20 19 18 17 15 13 10 8 6 5 4 4 5 6 5 4 3 3 1 1 1 3 4 5 6 7 9 10 11 12 13 14 16 17 17 17 18 19 20 18 15 12 11 10 11 13 15
6 7 9 13 13 10 8 8 6 6 6 5 5 6 8 8 8 7 8 8 8 8 9 9 9 9 10 11 12 13 13 14 17 21 23 24 23 21 19 18 16 14 13 11 8 6 4 5 5 6 5 5 4 3 3 2 2 1 2 4 5 6 7 8 9 10 11 12 14 16 17 19 19 20 20 21 21 19 16 13 11 10 12 14 15
10 10 8 9 9 6 5 5 4 3 3 4 7 9 8 7 6 6 7 7 8 9 10 10 9 9 10 11 12 12 12 13 17 20 21 21 20 18 17 16 15 13 12 10 7 4 4 4 5 5 4 4 5 4 3 2 2 2 3 4 5 6 7 8 9 10 11 12 13 15 17 20 21 22 22 22 21 19 18 16 13 11 12 13 14
10 8 5 5 4 4 4 4 3 3 3 3 6 6 5 6 6 6 7 8 9 10 11 12 12 13 15 15 16 17 18 19 19 20 19 18 17 16 15 15 14 12 11 9 6 4 4 4 4 4 3 4 6 7 5 4 4 3 3 4 5 6 8 8 9 10 11 11 13 15 17 19 21 22 22 23 22 20 20 18 15 13 12 13 15
7 4 4 4 3 3 3 3 3 3 2 2 5 4 4 7 9 10 11 12 13 14 15 17 18 19 20 20 20 19 19 18 17 17 16 15 14 14 14 14 13 11 10 8 7 5 4 4 4 4 3 4 7 9 8 6 4 3 3 4 5 6 7 8 9 10 10 11 13 14 16 18 20 21 22 22 22 21 20 19 17 14 13 13 14
5 5 5 4 4 4 4 4 4 5 5 4 6 9 11 12 13 15 16 18 19 19 19 19 19 19 19 19 19 17 16 15 14 13 13 13 13 13 13 13 12 10 7 7 7 7 6 5 5 5 5 6 7 8 6 5 4 3 3 4 5 6 7 7 8 10 11 12 13 14 15 17 19 20 21 22 22 21 20 20 18 16 14 13 14
7 6 5 5 5 5 5 5 5 5 5 5 6 9 12 14 16 16 17 18 18 18 18 18 17 17 16 16 15 14 13 12 12 12 12 13 14 14 13 13 12 9 6 6 7 8 8 8 7 7 7 7 6 5 4 4 3 3 3 4 4 5 6 7 8 10 11 12 13 14 15 16 18 20 22 22 21 20 20 19 18 16 14 13 13
8 7 7 7 7 6 6 6 5 4 5 7 8 9 11 13 15 15 14 14 15 16 16 15 14 13 13 12 12 12 11 11 11 11 12 13 13 13 12 11 10 8 7 7 7 7 8 8 8 7 7 6 5 4 3 3 3 3 4 4 5 6 6 7 8 10 12 14 15 15 16 16 18 20 21 21 21 20 19 19 19 18 15 13 12
11 12 12 11 10 9 8 7 6 7 7 8 9 10 11 11 11 12 12 12 13 14 14 12 11 10 10 10 10 11 11 11 10 10 11 11 10 10 9 8 8 7 7 6 6 7 8 8 7 7 6 5 4 3 3 3 3 4 5 6 6 6 7 7 8 9 11 13 15 16 17 17 17 18 20 22 21 18 17 18 20 19 16 13 12
14 14 14 14 14 14 12 11 10 10 9 9 9 9 10 11 11 12 12 13 12 12 11 10 9 9 9 10 11 11 11 10 10 10 10 9 9 9 9 8 7 6 5 5 7 8 8 8 7 6 5 4 4 3 3 4 5 6 6 7 7 7 7 8 8 9 10 12 14 16 17 17 17 17 19 21 20 17 16 17 19 18 15 12 12
13 13 13 13 15 15 14 14 14 14 14 13 12 12 12 13 13 12 11 11 10 9 9 9 9 9 9 10 11 10 10 9 9 9 10 9 9 8 7 6 6 6 6 7 8 9 8 7 6 5 4 4 4 4 4 5 6 6 7 7 8 8 8 8 9 9 10 11 13 15 16 17 17 17 18 19 19 17 16 16 16 15 13 11 12
Wind_Direction
192 194 193 197 203 202 198 195 188 184 180 174 175 178 182 180 176 174 171 167 166 163 160 159 157 155 154 151 149 147 141 138 132 124 121 118 120 119 108 104 101 92 89 86 87 87 80 68 55 59 75 86 91 92 97 104 105 107 111 116 121 120 119 125 127 126 115 84 81 51 28 32 18 2 355 340 335 335 332 330 328 329 328 323 316
202 201 196 198 204 204 201 195 191 189 184 181 183 185 186 184 181 180 177 174 172 169 167 164 160 159 159 158 160 157 151 148 143 138 138 134 132 126 117 120 131 125 107 98 102 110 110 112 81 64 75 90 100 109 119 111 107 116 119 120 123 119 119 127 128 124 109 79 75 51 30 36 26 358 359 355 348 347 343 340 337 332 329 327 318
206 207 202 201 204 205 204 199 195 194 189 186 189 189 189 188 185 184 183 181 179 175 172 168 167 168 170 171 173 170 166 166 163 160 161 159 156 152 143 144 156 155 143 144 169 185 147 149 186 132 102 105 127 157 162 134 135 149 141 137 134 124 120 128 129 129 129 93 76 68 2 2 3 358 357 353 349 354 350 344 342 336 330 328 321
209 210 209 211 211 211 210 203 196 196 194 192 192 191 191 191 190 188 186 186 185 181 178 176 178 183 184 185 186 185 184 185 188 189 193 197 196 197 206 224 245 248 238 218 215 230 220 201 212 209 184 172 164 174 173 156 156 163 159 157 153 140 112 121 137 151 173 179 40 337 323 339 344 345 352 349 344 347 346 341 340 337 331 327 322
209 209 214 220 223 223 220 209 199 199 202 202 196 191 191 195 195 192 189 189 187 186 186 188 194 198 195 192 193 196 198 203 212 217 221 224 222 232 251 263 266 268 269 263 257 256 252 239 237 235 222 210 203 203 200 183 174 177 179 177 185 199 197 158 182 190 203 230 275 304 313 322 321 325 338 345 340 335 333 336 336 333 330 328 323
212 213 218 222 225 228 227 222 212 205 209 210 201 193 192 197 200 197 194 192 192 193 195 199 205 207 204 203 204 204 208 218 227 230 235 245 253 263 272 274 271 273 274 271 266 262 260 257 255 254 245 232 224 219 215 206 196 198 199 196 204 220 230 242 233 222 238 247 263 292 304 311 316 320 323 329 335 331 324 332 335 328 326 327 324
211 215 220 221 221 224 226 223 214 204 208 211 204 198 197 199 203 202 199 198 200 202 204 211 215 213 213 214 212 217 232 247 256 257 259 267 272 275 276 273 270 272 275 274 268 263 263 262 259 258 253 245 242 239 232 223 216 218 219 213 215 227 236 238 236 239 253 265 278 287 292 306 317 319 318 326 335 333 322 326 329 325 322 324 323
193 202 206 202 200 204 205 205 200 196 201 205 201 201 200 199 202 205 204 205 208 209 210 216 222 219 218 223 228 240 253 261 269 275 277 279 277 274 273 271 271 274 276 275 269 264 265 264 258 255 252 252 255 253 245 237 229 227 231 232 231 233 234 232 237 250 260 270 284 289 291 303 309 313 321 326 328 324 318 321 325 325 323 324 324
158 165 165 159 162 171 176 183 189 193 197 200 203 207 207 206 207 208 208 209 211 216 220 222 225 226 227 234 243 251 258 263 270 276 276 274 272 269 268 268 268 270 270 269 267 265 264 261 255 252 254 259 262 256 249 244 241 238 238 238 238 239 239 238 241 250 262 274 279 282 295 300 295 303 317 318 316 317 318 320 323 323 321 323 324
141 143 145 148 152 157 163 171 181 188 193 200 209 212 209 210 210 209 213 215 215 223 231 229 227 228 232 244 253 258 262 267 272 276 269 261 259 261 266 266 260 261 262 261 261 263 264 263 261 257 254 254 257 258 254 249 247 249 250 246 243 242 236 235 244 251 261 274 275 279 295 300 295 306 316 316 316 318 318 319 320 320 320 321 321
125 131 134 140 147 153 162 169 177 187 193 198 207 210 210 212 212 206 209 217 216 219 230 234 234 236 241 250 254 254 258 260 259 257 242 222 220 232 253 264 256 262 265 262 261 263 265 267 274 275 269 263 264 267 264 255 248 249 251 249 250 252 246 243 250 258 266 272 274 284 297 300 302 309 313 314 317 315 314 316 317 317 317 316 316
118 130 135 139 148 155 162 167 173 180 185 190 199 210 217 222 225 221 218 224 233 244 255 252 245 242 239 239 238 238 238 230 219 225 232 237 248 257 270 281 285 282 276 275 274 272 271 268 271 279 281 278 276 277 272 262 254 251 249 247 250 255 256 254 254 260 271 275 277 289 297 300 306 310 310 312 313 310 309 313 312 311 312 312 312
116 118 119 128 144 158 174 183 183 186 195 199 205 219 226 230 234 232 228 233 244 255 259 244 223 216 210 209 219 226 222 216 219 229 238 250 266 279 285 286 286 283 282 284 284 281 282 281 273 275 279 279 278 280 278 268 258 252 247 244 246 252 256 259 261 266 274 277 281 288 293 297 305 307 306 308 308 306 308 311 308 307 309 308 307
110 110 106 107 114 119 132 151 163 171 185 193 196 215 230 235 235 229 226 228 227 226 217 196 187 191 197 211 235 246 247 242 238 240 244 256 271 284 293 292 287 286 289 288 284 280 280 281 274 274 281 280 274 280 283 276 260 246 243 243 243 246 251 256 263 269 273 279 286 291 295 300 306 307 305 305 304 305 308 309 308 308 308 307 309
104 104 105 106 107 106 107 112 115 115 117 122 130 140 153 171 175 171 178 182 173 172 179 186 197 210 219 234 245 248 251 247 238 235 236 246 259 269 281 287 288 292 295 292 285 279 277 276 271 266 273 276 276 281 281 274 256 239 237 240 239 242 247 254 262 270 278 285 291 295 299 303 306 305 303 303 304 307 309 310 311 312 313 314 315
114 115 119 121 121 118 116 115 111 112 115 118 126 137 145 153 153 150 158 169 171 179 194 204 214 221 219 218 222 221 216 213 213 219 224 236 249 258 269 275 277 281 286 287 283 279 277 276 271 268 276 281 281 279 269 245 224 220 230 236 238 243 249 257 267 277 285 291 295 299 302 303 303 302 301 302 305 307 309 312 315 314 311 308 306
124 128 130 134 144 144 139 138 136 131 126 122 132 147 155 161 164 162 164 172 178 188 199 199 197 200 197 188 207 261 277 289 301 287 267 257 252 252 253 253 258 269 275 275 278 279 271 263 258 260 267 270 265 260 236 173 167 197 226 237 242 249 257 267 280 288 293 297 299 300 301 301 301 301 302 305 308 310 313 315 313 304 297 296 296
118 127 132 137 155 175 178 175 175 170 160 153 162 173 176 182 191 190 179 177 185 189 192 200 205 216 232 239 261 284 294 305 310 311 307 296 278 250 224 226 248 266 273 275 278 280 269 256 253 256 264 267 260 248 203 153 169 209 238 251 259 267 273 282 290 294 296 298 299 299 300 301 303 305 306 308 311 312 312 311 307 302 297 295 295
118 122 136 140 145 163 176 182 192 195 192 192 192 189 187 193 204 209 196 191 213 222 211 213 228 243 257 267 277 289 300 306 308 310 305 294 287 250 207 210 229 250 269 280 284 282 275 269 271 280 292 300 292 262 220 213 225 246 262 271 276 279 283 290 297 300 300 301 303 304 306 306 308 310 311 311 312 311 310 308 308 306 297 292 293
153 150 166 175 178 181 181 183 188 190 194 201 201 198 202 208 219 232 231 227 243 248 231 218 228 245 261 276 286 293 301 305 304 304 297 288 281 244 214 214 225 226 240 274 284 283 281 284 292 299 304 304 295 277 259 255 256 261 268 273 275 281 289 293 295 296 298 301 304 306 308 310 312 315 316 315 313 309 305 303 303 300 293 291 292
197 212 223 222 224 224 222 222 221 219 220 226 228 228 230 235 242 249 249 247 249 249 239 229 234 251 266 276 285 293 300 303 304 305 300 291 277 250 224 212 212 212 216 241 278 290 278 283 293 294 290 285 280 275 273 272 270 268 269 271 273 280 289 293 293 294 298 301 303 305 307 309 310 310 307 305 302 296 291 292 291 288 285 286 288
228 238 245 244 243 240 237 238 239 236 234 238 243 243 242 242 241 240 238 236 236 237 236 233 235 248 263 273 283 298 307 307 305 300 296 295 277 249 234 227 225 214 212 247 262 246 256 280 294 287 279 276 274 273 274 272 272 273 275 276 278 280 283 287 292 296 299 299 300 302 302 299 295 293 291 291 290 289 290 291 288 284 281 278 280
240 246 249 247 245 242 240 243 246 245 244 242 240 238 235 231 225 219 216 217 217 220 226 226 220 221 229 232 248 282 293 288 294 295 292 294 281 254 246 252 251 233 219 247 252 240 257 280 288 277 271 270 269 270 271 269 270 274 276 278 280 282 285 288 293 296 297 298 300 300 297 290 287 287 288 286 284 285 289 291 291 294 294 288 283
252 251 251 251 249 245 244 245 246 246 245 239 231 226 223 221 219 215 213 213 212 212 216 217 211 209 210 209 218 248 279 283 289 299 300 301 294 274 263 264 258 234 217 222 227 243 268 283 280 268 267 267 269 274 276 275 276 278 281 284 286 288 292 295 296 298 301 303 301 298 292 288 286 285 283 284 287 292 296 298 300 303 302 295 290
263 261 260 261 258 254 251 248 244 242 240 234 229 226 225 224 224 221 219 220 220 217 216 215 213 215 217 216 219 239 272 284 287 296 299 299 295 283 272 269 259 237 228 236 245 261 279 287 279 268 266 269 276 282 284 285 286 286 288 292 295 298 300 299 298 301 303 296 291 292 289 285 285 286 289 295 300 304 306 305 305 305 302 298 295
261 261 262 263 261 259 257 252 246 243 240 236 232 229 229 229 229 228 227 227 226 226 226 224 223 226 231 231 224 232 257 273 280 290 292 288 285 279 270 264 252 241 243 257 268 276 280 283 283 277 272 273 279 283 286 290 292 293 295 300 303 303 302 299 296 296 293 285 285 290 291 288 291 297 303 308 310 309 306 304 304 304 302 301 299
262 260 260 261 261 261 261 257 251 247 243 240 235 232 231 232 231 230 231 230 231 233 233 232 232 234 240 244 237 232 240 251 263 280 286 280 275 270 262 255 247 244 249 259 269 275 277 278 282 281 275 275 279 284 289 293 296 302 306 306 307 307 306 303 298 292 291 291 293 297 300 301 305 309 310 309 306 304 303 302 302 303 303 303 301
263 260 258 258 258 259 260 258 255 252 248 244 239 234 232 233 233 233 232 232 235 238 237 237 239 240 243 247 240 235 238 236 241 261 275 270 261 256 255 252 243 241 246 253 262 269 268 263 265 269 270 274 279 284 290 295 300 306 305 303 310 317 319 318 315 307 302 306 307 308 311 312 310 307 305 304 304 303 303 301 300 302 303 304 302
267 264 260 257 255 255 254 255 256 254 251 248 244 240 235 232 232 235 235 232 231 233 237 240 240 240 242 243 239 238 242 237 237 252 263 258 248 245 248 246 236 235 243 252 259 263 257 250 254 259 261 266 268 260 265 284 298 305 302 304 311 307 300 309 319 312 307 310 311 313 315 314 311 308 305 304 303 302 302 302 302 302 302 302 300
267 266 262 258 256 253 249 248 250 250 249 248 247 246 242 237 234 236 238 236 234 235 237 238 237 236 236 238 239 241 243 245 251 260 262 253 247 246 247 245 239 237 242 249 253 253 248 243 243 241 238 242 239 225 244 273 288 296 300 308 315 298 291 298 312 308 310 315 315 315 316 314 313 311 307 306 307 308 306 304 304 303 302 301 300
262 261 260 258 255 250 247 245 244 245 246 244 243 244 245 243 240 238 238 240 241 239 237 236 237 237 237 239 244 249 254 258 261 263 260 255 253 254 253 249 243 238 240 246 249 244 234 223 219 219 213 212 217 222 242 268 267 270 294 310 319 301 301 312 325 315 316 318 316 315 314 313 312 310 309 310 311 312 311 307 306 303 300 299 300
258 256 253 251 252 253 252 251 248 246 245 243 241 240 241 242 242 238 235 235 235 233 233 235 238 241 241 241 247 254 259 262 261 261 259 257 256 256 254 251 243 235 234 237 234 223 211 201 201 208 206 205 222 237 244 256 261 266 285 303 306 302 307 320 325 324 324 320 318 317 315 313 311 308 308 310 311 312 312 309 307 306 304 303 301
256 254 251 249 251 255 258 257 254 251 249 246 244 242 239 239 240 240 239 239 237 233 233 236 239 242 242 242 247 254 258 258 257 257 257 256 256 257 255 247 238 232 231 225 210 199 197 195 196 201 201 201 220 238 239 243 259 272 279 317 344 334 330 328 325 326 325 319 318 318 315 315 314 311 310 311 310 310 310 309 309 309 309 307 304
255 253 250 247 247 250 255 257 257 256 253 248 245 245 243 242 242 240 242 246 246 242 240 241 243 244 244 245 248 253 256 256 256 256 257 256 255 255 251 240 230 227 225 214 198 190 193 193 191 194 199 206 219 229 232 233 231 229 31 44 30 2 355 355 338 327 325 321 318 317 318 320 320 316 313 312 310 309 309 310 312 311 310 312 312
256 254 252 249 246 245 250 255 257 257 256 252 250 249 247 246 245 243 240 241 243 242 243 245 246 247 249 250 251 253 254 256 256 255 256 255 254 253 247 235 224 219 214 205 195 191 191 191 191 196 205 218 223 216 214 219 200 154 68 48 32 9 8 9 346 325 324 322 315 317 321 323 322 318 315 313 311 311 312 312 312 312 314 318 320
255 255 254 252 248 245 247 252 256 257 257 254 251 249 246 243 243 243 240 238 236 235 237 241 245 249 252 253 253 254 256 256 255 255 255 254 254 250 238 223 212 207 204 197 189 185 185 188 196 205 212 217 213 198 196 199 172 141 85 56 38 15 8 360 338 329 330 329 324 324 325 324 324 322 320 317 313 311 312 312 311 311 317 323 325
252 251 249 247 246 244 242 244 251 256 257 253 249 244 242 240 237 236 235 233 230 230 228 231 242 250 254 253 252 254 255 254 254 254 252 247 242 237 227 214 205 201 198 190 182 182 188 198 207 210 205 197 186 181 190 184 159 135 64 52 34 6 357 356 350 348 348 338 332 332 330 329 329 325 322 321 319 315 315 314 310 310 318 326 329
252 249 240 234 235 238 238 241 250 256 258 255 247 238 235 235 232 230 229 227 227 227 225 227 237 246 252 253 253 253 254 254 251 244 234 222 215 215 212 203 197 196 192 183 180 185 196 209 212 198 185 189 186 182 185 177 158 150 56 45 19 347 350 358 354 351 350 340 335 339 339 336 333 329 325 326 325 323 321 317 312 313 322 330 332
253 250 237 222 215 219 227 236 245 251 252 252 247 241 241 241 238 233 227 225 231 233 229 227 231 231 238 250 255 254 251 247 239 229 219 205 197 198 196 188 182 182 179 178 181 187 199 211 207 187 185 191 185 179 185 180 168 158 57 35 0 334 341 349 346 348 351 345 339 341 343 341 340 338 336 334 333 332 332 326 319 321 330 335 334
250 249 237 218 208 210 222 232 240 243 242 247 251 250 248 247 246 242 233 226 233 237 232 226 225 221 228 246 253 246 236 228 219 210 202 191 184 184 183 177 174 176 178 182 187 190 197 203 199 197 204 199 187 182 188 185 174 157 12 0 335 324 331 337 341 349 352 349 347 350 349 348 350 352 353 351 347 345 342 332 320 321 331 336 336
239 225 205 194 192 201 217 225 231 238 242 249 257 255 250 252 253 248 238 230 229 229 221 212 214 221 227 230 225 216 214 213 207 200 191 183 178 176 174 173 174 177 180 183 184 185 185 183 184 198 206 196 186 189 198 201 215 281 313 321 322 324 329 332 335 342 348 351 353 355 354 354 356 1 4 2 358 352 344 330 320 326 338 341 340
195 174 177 183 185 194 211 219 227 241 244 247 259 254 249 253 254 241 227 218 210 204 200 199 207 218 219 211 205 206 210 209 200 189 179 171 168 167 169 172 174 177 181 182 179 173 171 174 186 199 198 184 176 185 201 213 233 267 288 303 314 321 325 327 328 333 342 349 352 353 355 356 360 4 6 4 360 354 346 335 330 337 346 346 343
148 143 158 174 177 188 211 215 219 235 240 258 272 264 247 235 224 208 195 192 194 198 202 205 208 205 195 186 181 175 169 165 165 164 161 160 163 168 172 174 175 180 185 185 178 168 167 172 178 182 179 178 185 193 201 205 205 221 263 295 313 322 324 323 323 328 337 344 348 352 356 358 0 3 3 2 359 356 352 346 339 336 344 350 348
118 126 147 167 175 193 211 207 201 212 234 284 299 279 236 202 184 176 177 184 191 192 186 178 170 161 153 149 147 146 146 148 152 155 158 163 169 175 178 179 182 187 189 191 192 188 175 173 177 174 170 192 207 213 220 223 213 220 260 299 317 324 324 323 323 327 333 339 345 351 357 359 359 360 360 359 358 357 356 354 348 343 349 356 355
104 135 166 178 180 174 162 153 156 166 157 67 49 70 122 150 155 156 158 158 157 154 150 148 147 145 142 139 138 140 144 148 153 159 165 171 175 180 183 187 191 192 194 202 215 213 182 164 176 184 188 204 215 221 227 226 217 226 271 304 318 323 324 325 327 330 333 339 344 350 356 358 358 357 357 358 358 358 357 357 354 348 347 352 353
131 153 165 170 165 146 134 135 138 133 124 99 81 85 96 108 121 131 136 138 138 139 139 139 139 139 137 136 137 140 146 153 161 170 177 181 185 189 191 192 192 191 195 214 228 227 214 201 201 207 213 216 222 229 233 224 214 229 272 302 315 319 321 328 336 339 341 343 345 349 353 355 356 358 358 357 358 359 358 358 355 348 342 344 348
127 134 151 162 161 151 146 148 145 136 133 128 112 103 103 106 111 118 125 129 132 134 134 134 136 138 140 143 145 149 156 167 176 184 189 192 194 194 192 192 195 201 216 235 237 228 221 218 219 222 225 227 231 234 226 212 211 238 276 297 305 308 316 331 343 347 348 348 349 350 351 351 355 358 358 355 357 1 1 358 354 347 340 340 340
107 112 119 125 135 144 151 155 155 158 158 149 135 123 119 118 117 118 122 127 132 134 135 136 139 143 150 155 157 162 170 177 183 189 192 193 191 189 188 195 209 224 235 238 231 218 212 214 221 227 229 233 236 228 211 209 228 256 274 287 295 302 314 330 342 349 352 353 352 351 350 350 354 356 355 355 358 3 1 356 353 350 346 342 338
102 106 105 106 114 123 133 143 152 161 164 158 147 137 132 129 129 131 133 136 139 141 143 143 143 146 152 156 158 165 171 173 175 179 182 183 187 193 202 216 227 232 230 223 213 205 206 212 218 223 226 229 228 217 213 227 248 263 275 284 291 298 308 321 335 343 348 351 352 351 350 350 351 352 353 355 358 359 355 351 352 353 353 349 340
103 105 104 106 108 108 108 113 121 130 141 149 153 151 147 143 139 136 134 132 132 131 130 130 130 134 142 150 156 161 165 167 170 177 186 195 206 215 220 222 219 216 213 207 198 196 200 206 208 210 213 215 215 218 231 247 258 269 279 286 291 298 304 313 324 333 339 344 349 350 349 347 347 350 352 355 355 353 350 351 353 354 353 349 340
101 104 109 115 116 114 112 111 112 116 123 130 137 142 143 139 133 126 121 120 120 119 119 123 128 134 144 155 163 166 169 176 186 195 203 210 214 213 209 204 199 194 190 187 187 189 193 196 198 202 207 213 220 233 249 261 270 279 287 291 296 301 304 308 315 323 330 336 342 345 346 346 347 348 349 351 352 351 350 351 350 347 344 342 338
Height
1522 1525 1528 1531 1533 1534 1535 1536 1536 1537 1537 1539 1540 1542 1543 1544 1545 1546 1547 1549 1550 1551 1553 1554 1555 1555 1556 1557 1557 1558 1558 1558 1559 1559 1560 1560 1561 1561 1561 1562 1563 1563 1563 1563 1563 1563 1563 1564 1564 1563 1564 1564 1564 1564 1564 1563 1564 1564 1565 1566 1566 1566 1567 1567 1568 1568 1568 1568 1568 1568 1567 1567 1567 1567 1566 1566 1565 1564 1564 1563 1562 1562 1561 1560 1558
1522 1524 1526 1529 1531 1532 1534 1534 1535 1535 1536 1538 1539 1541 1542 1543 1544 1546 1547 1548 1549 1551 1552 1553 1554 1555 1556 1557 1557 1557 1558 1558 1558 1559 1559 1560 1560 1560 1561 1561 1562 1562 1562 1563 1563 1563 1563 1564 1564 1564 1564 1564 1564 1565 1564 1564 1565 1566 1566 1567 1567 1567 1568 1568 1568 1568 1568 1568 1568 1568 1567 1567 1567 1567 1566 1565 1565 1564 1563 1563 1562 1561 1561 1560 1558
1520 1522 1524 1526 1528 1530 1532 1532 1533 1534 1535 1537 1538 1540 1541 1542 1543 1545 1546 1548 1549 1550 1552 1553 1554 1555 1556 1556 1557 1557 1558 1558 1558 1558 1559 1559 1559 1560 1560 1561 1561 1562 1562 1563 1564 1563 1563 1564 1564 1564 1563 1564 1564 1564 1564 1565 1566 1566 1566 1566 1567 1567 1567 1568 1568 1569 1569 1568 1568 1568 1567 1567 1567 1566 1565 1564 1564 1563 1563 1562 1561 1560 1559 1558 1557
1518 1520 1522 1524 1526 1527 1529 1529 1531 1533 1534 1536 1537 1539 1540 1541 1543 1544 1545 1547 1548 1549 1551 1552 1553 1554 1555 1556 1557 1557 1557 1557 1557 1558 1558 1559 1559 1559 1560 1560 1561 1561 1562 1562 1563 1563 1563 1564 1564 1564 1563 1564 1564 1564 1564 1564 1565 1566 1566 1566 1566 1566 1566 1567 1568 1568 1568 1568 1568 1568 1567 1566 1566 1566 1565 1564 1563 1562 1562 1561 1560 1559 1557 1556 1555
1517 1518 1520 1522 1523 1525 1526 1528 1530 1532 1533 1535 1536 1538 1539 1540 1542 1543 1545 1546 1547 1548 1549 1551 1552 1553 1554 1555 1556 1556 1556 1556 1556 1557 1557 1557 1558 1558 1558 1559 1560 1560 1561 1561 1562 1562 1563 1563 1563 1563 1563 1563 1564 1564 1564 1564 1564 1565 1566 1566 1566 1566 1566 1566 1567 1567 1568 1568 1567 1566 1565 1565 1565 1564 1563 1564 1563 1563 1562 1561 1559 1557 1555 1554 1553
1515 1517 1519 1520 1522 1524 1525 1527 1529 1530 1532 1533 1535 1537 1538 1540 1541 1543 1544 1545 1546 1547 1548 1549 1551 1552 1553 1554 1555 1555 1555 1555 1555 1556 1556 1556 1556 1557 1557 1558 1558 1558 1559 1559 1560 1561 1561 1562 1562 1562 1562 1562 1563 1563 1563 1563 1564 1565 1565 1566 1566 1565 1564 1565 1566 1566 1566 1566 1566 1565 1564 1563 1563 1563 1562 1561 1561 1561 1560 1559 1558 1557 1554 1552 1550
1515 1517 1518 1519 1521 1523 1524 1526 1527 1529 1531 1532 1534 1535 1537 1539 1540 1542 1543 1544 1545 1546 1547 1548 1549 1551 1552 1553 1553 1554 1553 1553 1553 1554 1554 1554 1554 1555 1555 1556 1556 1556 1557 1557 1558 1559 1559 1560 1560 1561 1561 1561 1562 1562 1562 1562 1563 1564 1564 1564 1565 1564 1564 1564 1565 1565 1565 1565 1565 1565 1564 1562 1562 1562 1560 1559 1559 1559 1558 1556 1556 1555 1553 1550 1548
1515 1517 1518 1519 1520 1522 1524 1525 1526 1528 1529 1531 1533 1534 1536 1537 1539 1540 1542 1543 1544 1545 1546 1547 1548 1550 1551 1551 1552 1552 1551 1552 1552 1552 1552 1552 1552 1552 1553 1553 1554 1554 1555 1555 1556 1557 1557 1558 1559 1559 1559 1560 1560 1560 1561 1561 1561 1562 1562 1563 1563 1563 1563 1564 1564 1564 1564 1564 1563 1564 1564 1563 1562 1561 1560 1559 1558 1558 1557 1555 1553 1552 1550 1548 1546
1516 1517 1518 1519 1520 1521 1522 1524 1525 1527 1528 1530 1532 1533 1535 1536 1538 1539 1540 1541 1542 1543 1545 1546 1546 1548 1549 1549 1550 1550 1550 1550 1550 1550 1550 1550 1550 1550 1551 1551 1552 1552 1553 1553 1554 1555 1555 1556 1556 1557 1557 1557 1558 1558 1558 1559 1559 1559 1560 1560 1561 1562 1562 1563 1563 1563 1563 1562 1562 1562 1562 1562 1561 1560 1558 1557 1557 1556 1554 1553 1551 1550 1548 1546 1545
1516 1517 1518 1519 1519 1520 1521 1522 1524 1525 1527 1529 1531 1532 1534 1535 1536 1538 1539 1539 1540 1542 1544 1545 1545 1546 1547 1547 1548 1548 1548 1548 1548 1548 1548 1548 1549 1549 1549 1550 1550 1551 1551 1552 1553 1553 1553 1554 1554 1554 1555 1555 1555 1555 1556 1556 1556 1557 1557 1557 1558 1560 1561 1561 1561 1561 1561 1561 1560 1560 1560 1560 1559 1558 1556 1555 1554 1553 1552 1551 1549 1547 1545 1544 1543
1516 1517 1517 1518 1519 1520 1521 1522 1523 1525 1526 1528 1529 1531 1532 1532 1534 1536 1537 1537 1538 1540 1542 1544 1544 1545 1545 1546 1546 1546 1546 1546 1546 1547 1547 1547 1548 1548 1548 1549 1549 1550 1550 1551 1551 1552 1552 1552 1552 1552 1552 1552 1552 1553 1553 1554 1554 1555 1555 1554 1555 1556 1557 1558 1559 1559 1559 1559 1558 1558 1558 1558 1556 1555 1555 1553 1552 1551 1550 1549 1547 1545 1544 1542 1541
1515 1516 1517 1518 1519 1520 1521 1522 1523 1524 1526 1527 1528 1529 1530 1532 1533 1534 1535 1536 1538 1540 1541 1542 1542 1543 1544 1544 1545 1545 1545 1545 1545 1546 1546 1547 1547 1547 1548 1548 1548 1549 1549 1549 1550 1550 1550 1551 1551 1550 1550 1550 1551 1551 1551 1551 1552 1552 1553 1553 1553 1554 1554 1556 1556 1556 1557 1557 1556 1556 1556 1555 1554 1553 1552 1551 1550 1549 1548 1547 1545 1543 1542 1540 1538
1515 1516 1517 1518 1519 1520 1521 1522 1523 1524 1525 1527 1528 1529 1530 1531 1532 1532 1533 1534 1536 1538 1540 1541 1541 1542 1543 1543 1544 1544 1545 1545 1545 1545 1546 1546 1546 1547 1547 1547 1548 1548 1548 1548 1549 1549 1549 1549 1549 1549 1548 1548 1549 1549 1549 1549 1549 1550 1550 1551 1551 1552 1552 1553 1554 1554 1554 1554 1554 1554 1553 1553 1552 1551 1549 1549 1548 1547 1545 1544 1543 1541 1539 1537 1535
1515 1516 1517 1519 1520 1521 1522 1522 1523 1524 1525 1527 1528 1528 1529 1530 1530 1531 1532 1533 1534 1537 1539 1540 1541 1542 1542 1543 1543 1543 1544 1544 1544 1545 1545 1545 1545 1546 1547 1547 1547 1547 1547 1547 1547 1547 1548 1548 1548 1548 1547 1546 1547 1547 1547 1547 1547 1548 1548 1548 1549 1550 1550 1551 1552 1552 1552 1552 1552 1552 1551 1551 1550 1548 1547 1546 1545 1544 1543 1541 1540 1538 1536 1534 1532
1517 1517 1519 1520 1520 1522 1523 1523 1524 1525 1525 1527 1527 1528 1529 1529 1530 1531 1532 1533 1535 1537 1540 1541 1541 1542 1542 1542 1542 1542 1543 1543 1543 1544 1544 1545 1545 1546 1546 1546 1546 1546 1546 1546 1546 1546 1546 1546 1546 1546 1545 1545 1545 1545 1545 1546 1546 1546 1546 1547 1548 1548 1549 1550 1550 1550 1550 1550 1550 1549 1548 1547 1547 1545 1544 1543 1542 1541 1539 1537 1536 1534 1531 1529 1528
1518 1519 1520 1521 1521 1522 1523 1524 1525 1525 1526 1527 1528 1528 1529 1530 1531 1532 1533 1535 1537 1538 1540 1541 1541 1541 1542 1542 1542 1542 1542 1543 1543 1543 1544 1544 1545 1545 1545 1545 1545 1545 1545 1545 1545 1545 1545 1545 1544 1544 1544 1543 1543 1543 1544 1544 1545 1545 1545 1546 1546 1547 1548 1548 1548 1548 1548 1547 1547 1546 1545 1544 1543 1542 1542 1541 1539 1538 1536 1534 1533 1531 1529 1528 1527
1518 1520 1520 1521 1522 1523 1523 1524 1525 1526 1527 1528 1529 1529 1530 1531 1532 1533 1534 1536 1537 1538 1539 1540 1540 1541 1541 1541 1541 1541 1542 1542 1542 1543 1543 1543 1544 1544 1545 1545 1544 1544 1544 1544 1544 1543 1543 1543 1543 1542 1542 1542 1542 1542 1543 1544 1545 1545 1545 1545 1546 1546 1546 1546 1546 1546 1545 1544 1543 1543 1542 1541 1540 1539 1538 1537 1536 1534 1533 1532 1531 1530 1529 1527 1525
1519 1520 1521 1522 1523 1523 1524 1525 1525 1525 1526 1528 1529 1529 1531 1532 1533 1534 1535 1536 1537 1538 1539 1539 1539 1540 1540 1540 1540 1540 1541 1541 1541 1541 1541 1542 1542 1543 1544 1544 1543 1543 1543 1542 1542 1542 1542 1542 1541 1541 1541 1541 1541 1542 1542 1543 1545 1545 1544 1544 1544 1544 1544 1543 1543 1542 1542 1541 1540 1539 1538 1538 1537 1535 1534 1533 1533 1531 1530 1529 1528 1527 1526 1525 1523
1521 1521 1522 1522 1523 1524 1524 1525 1526 1526 1526 1527 1528 1529 1531 1532 1533 1534 1535 1536 1536 1537 1538 1538 1538 1538 1538 1539 1539 1539 1539 1539 1540 1540 1540 1541 1541 1542 1543 1543 1543 1543 1542 1541 1540 1540 1540 1540 1540 1540 1540 1540 1540 1541 1541 1542 1543 1543 1543 1543 1543 1542 1541 1541 1540 1539 1538 1538 1537 1536 1535 1534 1533 1532 1530 1530 1529 1528 1526 1526 1525 1525 1524 1523 1521
1520 1521 1522 1522 1523 1524 1524 1525 1526 1526 1527 1527 1528 1529 1530 1531 1532 1533 1535 1535 1535 1536 1537 1538 1537 1537 1537 1537 1538 1538 1538 1538 1538 1539 1539 1539 1540 1541 1542 1543 1542 1542 1542 1542 1540 1539 1538 1538 1538 1538 1539 1539 1539 1540 1540 1541 1541 1541 1541 1541 1540 1539 1539 1538 1538 1538 1537 1536 1535 1534 1533 1532 1531 1530 1528 1527 1526 1525 1524 1523 1523 1522 1522 1520 1519
1519 1520 1521 1522 1523 1523 1524 1524 1525 1525 1526 1526 1527 1528 1529 1529 1530 1532 1533 1534 1534 1535 1535 1536 1536 1536 1536 1536 1536 1536 1536 1536 1537 1537 1537 1538 1538 1539 1540 1541 1541 1541 1542 1541 1541 1540 1539 1537 1537 1538 1538 1538 1538 1539 1539 1539 1539 1539 1539 1539 1538 1538 1537 1536 1536 1536 1535 1534 1534 1533 1532 1531 1530 1529 1528 1527 1526 1524 1523 1521 1520 1520 1520 1518 1517
1519 1519 1520 1521 1521 1522 1523 1523 1523 1524 1524 1525 1526 1526 1527 1528 1529 1529 1531 1531 1532 1532 1533 1534 1535 1534 1534 1534 1534 1535 1535 1535 1535 1536 1536 1537 1537 1538 1539 1539 1539 1540 1540 1540 1541 1540 1538 1537 1537 1537 1537 1537 1537 1537 1537 1537 1537 1536 1536 1536 1536 1535 1535 1535 1534 1534 1533 1533 1532 1532 1531 1531 1530 1529 1527 1526 1524 1522 1520 1519 1518 1516 1515 1514 1513
1518 1518 1519 1519 1519 1520 1521 1521 1521 1522 1522 1523 1524 1525 1525 1526 1527 1528 1529 1529 1529 1530 1531 1532 1533 1533 1533 1533 1533 1533 1533 1534 1534 1534 1535 1535 1535 1536 1536 1536 1537 1538 1538 1539 1539 1538 1537 1535 1536 1536 1535 1535 1535 1535 1535 1535 1534 1534 1534 1534 1534 1533 1533 1533 1532 1532 1532 1531 1530 1530 1529 1529 1528 1526 1525 1523 1521 1519 1517 1515 1514 1512 1510 1508 1507
1516 1517 1517 1517 1517 1518 1518 1519 1519 1520 1520 1521 1522 1523 1524 1525 1525 1526 1527 1527 1528 1529 1529 1529 1530 1531 1532 1532 1531 1531 1532 1532 1532 1533 1533 1533 1533 1534 1534 1534 1534 1535 1536 1537 1537 1536 1534 1534 1534 1534 1534 1533 1533 1533 1532 1532 1532 1532 1532 1532 1532 1531 1531 1531 1530 1530 1530 1529 1528 1528 1527 1526 1524 1523 1521 1519 1517 1515 1513 1511 1509 1507 1506 1504 1502
1514 1514 1515 1515 1515 1516 1516 1517 1517 1518 1518 1519 1520 1522 1522 1523 1523 1524 1525 1525 1526 1527 1527 1528 1528 1529 1530 1530 1530 1529 1529 1530 1530 1531 1531 1531 1531 1532 1532 1532 1532 1532 1533 1534 1534 1533 1533 1532 1532 1532 1532 1531 1531 1530 1530 1530 1530 1530 1530 1530 1530 1529 1529 1529 1529 1528 1528 1527 1526 1525 1524 1523 1521 1519 1517 1515 1513 1511 1509 1508 1506 1504 1503 1501 1500
1511 1512 1512 1513 1513 1513 1514 1514 1515 1516 1516 1517 1518 1519 1520 1520 1521 1522 1522 1523 1524 1524 1525 1526 1526 1527 1527 1528 1528 1527 1527 1527 1528 1528 1528 1529 1529 1529 1530 1530 1530 1531 1531 1531 1531 1531 1531 1531 1530 1530 1530 1529 1529 1529 1529 1529 1529 1528 1528 1528 1528 1528 1528 1527 1527 1526 1526 1525 1523 1522 1521 1519 1517 1515 1513 1512 1510 1509 1508 1506 1505 1503 1501 1500 1498
1508 1509 1509 1510 1510 1511 1511 1512 1512 1513 1514 1514 1515 1516 1517 1518 1518 1519 1520 1520 1521 1521 1522 1523 1523 1524 1525 1525 1526 1525 1525 1525 1525 1525 1526 1526 1527 1527 1528 1528 1529 1529 1529 1530 1530 1530 1530 1529 1529 1529 1528 1528 1528 1528 1527 1527 1527 1527 1527 1527 1527 1526 1526 1525 1524 1524 1523 1522 1520 1519 1517 1516 1514 1512 1511 1510 1509 1508 1507 1505 1503 1501 1500 1499 1497
1504 1505 1506 1506 1507 1508 1509 1509 1509 1510 1511 1512 1512 1513 1514 1514 1515 1515 1516 1517 1518 1518 1519 1520 1520 1521 1521 1522 1523 1523 1523 1523 1523 1523 1524 1524 1525 1526 1526 1526 1527 1528 1528 1528 1528 1528 1528 1528 1528 1528 1527 1527 1527 1527 1527 1527 1526 1526 1526 1526 1525 1525 1524 1523 1522 1522 1521 1519 1518 1516 1515 1513 1512 1511 1510 1509 1508 1506 1505 1503 1502 1500 1499 1497 1495
1501 1501 1502 1503 1504 1504 1505 1505 1506 1507 1508 1508 1508 1509 1510 1510 1511 1512 1512 1512 1513 1514 1515 1516 1517 1518 1518 1520 1520 1521 1522 1522 1521 1522 1522 1523 1524 1524 1524 1525 1526 1526 1526 1526 1527 1527 1527 1527 1527 1527 1527 1527 1527 1527 1527 1526 1525 1525 1525 1524 1524 1524 1523 1522 1522 1521 1519 1517 1515 1514 1513 1512 1510 1509 1508 1507 1505 1504 1502 1501 1499 1498 1497 1495 1494
1497 1498 1499 1499 1500 1501 1501 1502 1503 1503 1504 1505 1505 1505 1505 1505 1507 1508 1508 1508 1509 1511 1512 1513 1514 1514 1516 1517 1517 1518 1519 1519 1519 1519 1520 1521 1522 1522 1523 1523 1524 1523 1524 1525 1525 1526 1526 1526 1526 1526 1526 1526 1526 1526 1526 1525 1525 1524 1523 1523 1523 1522 1521 1520 1520 1519 1516 1515 1514 1513 1511 1510 1509 1507 1506 1504 1503 1501 1500 1498 1497 1496 1495 1494 1492
1493 1494 1495 1496 1496 1496 1497 1498 1499 1499 1500 1501 1501 1501 1501 1502 1502 1503 1504 1505 1506 1507 1508 1509 1510 1511 1513 1514 1513 1514 1515 1516 1516 1517 1518 1519 1520 1520 1521 1521 1521 1522 1522 1523 1523 1524 1524 1525 1525 1525 1525 1525 1525 1525 1525 1524 1524 1523 1522 1522 1522 1521 1520 1518 1517 1516 1514 1513 1513 1511 1510 1509 1507 1506 1504 1502 1500 1499 1498 1497 1496 1495 1493 1492 1491
1489 1490 1491 1492 1492 1492 1492 1493 1494 1495 1496 1497 1497 1498 1498 1499 1499 1499 1500 1501 1502 1503 1504 1505 1507 1508 1509 1510 1510 1511 1512 1513 1513 1514 1515 1516 1517 1518 1518 1519 1519 1520 1521 1521 1522 1523 1523 1524 1524 1524 1524 1524 1524 1523 1523 1523 1522 1522 1521 1521 1521 1520 1519 1517 1515 1514 1513 1513 1511 1510 1509 1508 1506 1504 1503 1501 1499 1498 1497 1496 1495 1493 1492 1490 1489
1485 1486 1487 1487 1488 1488 1489 1489 1490 1491 1492 1493 1494 1494 1495 1495 1496 1496 1496 1497 1498 1499 1500 1501 1503 1504 1505 1507 1507 1508 1509 1510 1511 1511 1512 1513 1514 1515 1516 1516 1517 1518 1519 1520 1521 1521 1522 1523 1523 1523 1523 1522 1522 1522 1521 1521 1521 1520 1520 1520 1519 1519 1518 1516 1515 1514 1513 1512 1511 1509 1508 1506 1504 1503 1501 1500 1498 1497 1496 1494 1493 1492 1490 1489 1488
1480 1481 1481 1482 1484 1485 1485 1486 1487 1488 1488 1489 1490 1490 1491 1492 1492 1493 1494 1494 1495 1496 1497 1498 1499 1501 1502 1503 1504 1505 1506 1507 1508 1509 1509 1510 1511 1512 1513 1514 1514 1515 1516 1518 1519 1520 1520 1521 1521 1521 1521 1521 1520 1520 1520 1520 1519 1519 1518 1518 1518 1517 1517 1516 1515 1515 1513 1511 1510 1509 1507 1505 1503 1502 1500 1499 1497 1496 1494 1493 1491 1490 1489 1487 1486
1477 1477 1476 1477 1479 1481 1482 1482 1483 1484 1485 1485 1486 1487 1487 1488 1488 1489 1491 1492 1492 1493 1494 1494 1495 1497 1499 1499 1501 1502 1503 1504 1505 1506 1506 1507 1508 1510 1510 1510 1511 1512 1514 1515 1517 1518 1519 1519 1520 1520 1520 1519 1519 1519 1519 1519 1518 1518 1518 1517 1517 1516 1515 1515 1515 1514 1513 1511 1510 1508 1505 1503 1502 1501 1499 1498 1496 1494 1493 1492 1490 1488 1487 1486 1484
1474 1474 1474 1474 1475 1476 1478 1479 1480 1481 1481 1482 1483 1484 1484 1484 1485 1486 1487 1489 1490 1491 1492 1492 1492 1493 1495 1496 1497 1498 1499 1500 1501 1502 1503 1504 1505 1507 1507 1507 1508 1510 1512 1513 1515 1516 1517 1518 1518 1518 1518 1518 1518 1518 1518 1517 1517 1517 1517 1516 1516 1516 1515 1514 1514 1512 1511 1510 1509 1507 1505 1503 1502 1500 1498 1497 1495 1493 1492 1490 1488 1487 1485 1484 1483
1470 1470 1471 1471 1472 1473 1475 1477 1477 1478 1478 1479 1480 1481 1481 1482 1482 1483 1484 1485 1486 1488 1490 1490 1489 1489 1491 1492 1494 1495 1496 1496 1497 1498 1499 1501 1503 1504 1504 1505 1507 1509 1510 1512 1513 1515 1515 1516 1516 1516 1517 1517 1517 1517 1517 1517 1516 1516 1516 1515 1515 1515 1514 1513 1512 1510 1509 1509 1508 1506 1504 1502 1501 1499 1497 1495 1494 1492 1490 1488 1487 1485 1484 1483 1481
1465 1466 1467 1468 1470 1472 1473 1474 1475 1475 1475 1476 1477 1477 1478 1479 1479 1480 1482 1482 1483 1484 1486 1487 1487 1487 1488 1488 1489 1491 1492 1492 1493 1494 1495 1497 1499 1501 1502 1504 1506 1508 1510 1511 1512 1513 1514 1514 1515 1515 1516 1516 1516 1516 1516 1516 1516 1515 1515 1515 1515 1515 1514 1513 1512 1510 1510 1509 1508 1506 1504 1502 1500 1498 1496 1494 1492 1490 1489 1487 1485 1484 1482 1481 1480
1462 1462 1463 1464 1467 1469 1471 1472 1473 1473 1473 1473 1474 1474 1475 1476 1476 1477 1478 1479 1479 1481 1483 1484 1485 1485 1485 1484 1485 1487 1488 1488 1489 1490 1492 1494 1497 1499 1501 1503 1505 1507 1509 1510 1511 1512 1512 1513 1513 1514 1515 1515 1515 1515 1515 1515 1515 1515 1514 1514 1515 1514 1514 1513 1512 1511 1510 1509 1507 1505 1503 1501 1499 1497 1495 1493 1491 1489 1487 1485 1484 1482 1481 1480 1478
1460 1461 1462 1463 1465 1467 1469 1470 1471 1471 1472 1472 1472 1472 1473 1473 1473 1474 1475 1476 1477 1478 1480 1481 1482 1483 1482 1482 1482 1484 1484 1485 1487 1488 1490 1493 1495 1498 1500 1502 1504 1506 1508 1509 1509 1510 1511 1512 1512 1513 1513 1513 1514 1514 1514 1514 1514 1514 1514 1514 1514 1513 1513 1512 1511 1509 1508 1507 1506 1504 1502 1500 1498 1496 1494 1492 1490 1487 1485 1483 1482 1481 1480 1478 1476
1459 1460 1461 1463 1465 1467 1468 1469 1470 1470 1471 1471 1471 1471 1471 1472 1472 1472 1474 1475 1475 1476 1478 1479 1480 1480 1479 1479 1480 1482 1482 1484 1485 1487 1489 1491 1494 1497 1499 1501 1503 1505 1506 1507 1508 1509 1510 1511 1512 1512 1512 1512 1513 1513 1514 1514 1514 1514 1513 1513 1513 1512 1511 1510 1509 1508 1507 1506 1504 1503 1501 1499 1497 1495 1493 1490 1488 1486 1484 1483 1481 1480 1478 1477 1475
1458 1460 1461 1463 1465 1467 1468 1469 1469 1470 1470 1470 1470 1470 1470 1470 1471 1471 1472 1473 1473 1474 1475 1476 1476 1476 1477 1478 1479 1480 1481 1483 1484 1486 1489 1492 1494 1497 1499 1501 1502 1504 1505 1506 1507 1509 1510 1511 1511 1511 1511 1511 1512 1513 1514 1513 1513 1512 1512 1512 1511 1511 1510 1509 1508 1507 1506 1505 1503 1502 1500 1498 1495 1493 1491 1489 1487 1485 1483 1482 1480 1478 1477 1475 1474
1459 1460 1462 1464 1465 1467 1468 1468 1469 1469 1468 1468 1468 1467 1468 1468 1469 1469 1470 1470 1471 1471 1472 1473 1474 1475 1476 1477 1479 1480 1482 1483 1485 1488 1490 1493 1495 1497 1499 1501 1502 1503 1505 1506 1507 1508 1509 1510 1510 1510 1510 1510 1511 1511 1512 1511 1511 1511 1510 1510 1510 1509 1509 1508 1507 1506 1505 1504 1502 1501 1499 1496 1494 1492 1490 1489 1487 1485 1483 1481 1479 1477 1476 1474 1473
1461 1462 1464 1465 1466 1467 1467 1468 1468 1468 1468 1468 1467 1465 1465 1465 1466 1467 1468 1468 1469 1470 1471 1472 1473 1475 1476 1478 1479 1481 1483 1485 1487 1489 1492 1494 1496 1497 1499 1500 1501 1503 1504 1505 1506 1507 1508 1509 1509 1509 1508 1508 1508 1508 1508 1508 1509 1509 1509 1509 1508 1508 1507 1507 1506 1505 1504 1503 1501 1499 1497 1495 1493 1492 1490 1488 1486 1484 1482 1480 1478 1476 1475 1473 1472
1463 1464 1465 1466 1466 1466 1467 1467 1467 1468 1468 1468 1467 1465 1464 1464 1464 1465 1467 1468 1469 1471 1472 1473 1474 1476 1477 1479 1480 1482 1484 1487 1489 1491 1493 1494 1496 1497 1499 1500 1501 1503 1503 1504 1505 1505 1507 1508 1508 1507 1506 1506 1506 1506 1507 1507 1507 1508 1508 1508 1507 1507 1506 1506 1505 1504 1503 1501 1500 1498 1497 1495 1493 1491 1489 1487 1485 1483 1481 1479 1477 1475 1474 1472 1471
1465 1465 1465 1465 1466 1466 1467 1467 1467 1468 1469 1469 1468 1467 1466 1466 1466 1467 1468 1469 1471 1472 1474 1475 1477 1478 1479 1481 1482 1484 1486 1488 1490 1492 1493 1495 1496 1497 1498 1500 1501 1502 1503 1503 1503 1503 1504 1505 1505 1505 1505 1505 1505 1505 1506 1506 1506 1506 1506 1506 1506 1506 1505 1504 1503 1503 1501 1500 1499 1497 1496 1494 1493 1491 1488 1486 1484 1482 1480 1479 1477 1475 1473 1472 1470
1465 1465 1465 1465 1466 1466 1467 1468 1468 1469 1469 1470 1470 1469 1469 1469 1469 1470 1471 1472 1473 1474 1476 1477 1479 1480 1482 1483 1485 1486 1488 1489 1491 1492 1493 1495 1496 1497 1498 1499 1500 1501 1501 1501 1501 1502 1502 1503 1503 1503 1503 1504 1504 1504 1504 1505 1505 1505 1505 1505 1505 1505 1504 1503 1502 1501 1500 1499 1497 1496 1495 1493 1492 1489 1488 1486 1484 1482 1480 1478 1476 1475 1473 1471 1470
1466 1466 1466 1466 1466 1467 1467 1468 1469 1469 1470 1471 1471 1471 1471 1472 1472 1473 1474 1475 1476 1477 1478 1480 1481 1482 1484 1485 1486 1488 1489 1490 1491 1492 1493 1494 1495 1496 1497 1498 1499 1499 1500 1500 1500 1501 1501 1502 1502 1502 1503 1503 1503 1503 1503 1503 1504 1504 1504 1504 1503 1503 1502 1502 1501 1500 1499 1497 1496 1495 1493 1492 1490 1489 1487 1485 1483 1481 1479 1477 1476 1474 1472 1471 1470
1468 1468 1468 1468 1468 1468 1468 1469 1469 1470 1471 1472 1472 1473 1473 1474 1475 1475 1476 1477 1478 1479 1480 1481 1482 1483 1484 1485 1487 1488 1488 1489 1491 1492 1493 1494 1495 1496 1496 1497 1498 1498 1498 1499 1499 1500 1500 1501 1501 1502 1502 1502 1502 1502 1502 1503 1503 1503 1503 1502 1502 1502 1501 1500 1499 1498 1497 1496 1495 1493 1492 1491 1489 1488 1486 1484 1482 1480 1478 1477 1475 1473 1472 1470 1469
1470 1470 1470 1470 1470 1470 1471 1471 1471 1471 1472 1473 1474 1474 1475 1476 1477 1477 1478 1479 1479 1480 1481 1482 1483 1484 1485 1485 1486 1487 1488 1489 1490 1491 1492 1493 1494 1495 1496 1496 1497 1497 1497 1498 1498 1499 1500 1500 1501 1501 1501 1501 1501 1501 1502 1502 1502 1501 1501 1501 1501 1500 1500 1499 1498 1497 1496 1495 1494 1492 1491 1490 1488 1487 1485 1483 1481 1480 1478 1477 1475 1473 1471 1470 1469
1472 1472 1472 1472 1472 1472 1472 1473 1473 1473 1474 1474 1475 1476 1477 1477 1478 1479 1480 1480 1481 1482 1483 1483 1484 1485 1485 1486 1487 1488 1489 1489 1490 1491 1492 1493 1493 1494 1494 1495 1495 1496 1497 1497 1498 1499 1499 1500 1500 1500 1501 1501 1501 1501 1501 1501 1501 1500 1500 1500 1499 1499 1498 1498 1497 1496 1495 1494 1493 1492 1490 1489 1487 1486 1485 1483 1481 1479 1478 1476 1474 1473 1471 1470 1469